K5KTX Weather Reports


time (UTC)temp
C
wind
direction
speed
KPH
gust
KPH
rain 1hr
cm
rain 24hr
cm
rain mn
cm
humidity
%
barometer
mb
20260509150506 24 21 4.8 11.3 0.00 0.00 0.00 83 1010.9
20260509150016 23 242 3.2 20.9 0.00 0.00 0.00 82 1010.9
20260509145508 23 235 4.8 20.9 0.00 0.00 0.00 83 1010.9
20260509145007 23 228 1.6 11.3 0.00 0.00 0.00 1011.0
20260509144530 23 61 1.6 12.9 0.00 0.00 0.00 1011.0
20260509144006 23 240 9.7 12.9 0.00 0.00 0.00 1010.9
20260509143511 23 230 0.0 8.0 0.00 0.00 0.00 1010.9
20260509143026 23 196 4.8 8.0 0.00 0.00 0.00 1010.9
20260509142513 23 234 1.6 8.0 0.00 0.00 0.00 1011.0
20260509142008 22 219 3.2 8.0 0.00 0.00 0.00 1011.0
20260509141526 22 175 1.6 8.0 0.00 0.00 0.00 94 1011.0
20260509141009 22 208 0.0 6.4 0.00 0.00 0.00 94 1011.0
20260509140511 22 119 1.6 4.8 0.00 0.00 0.00 94 1010.9
20260509140025 22 90 1.6 6.4 0.00 0.00 0.00 95 1010.9
20260509135505 22 122 1.6 6.4 0.00 0.00 0.00 95 1010.9
20260509135006 22 167 1.6 6.4 0.00 0.00 0.00 95 1010.9
20260509134519 22 148 1.6 6.4 0.00 0.00 0.00 95 1010.9
20260509134007 21 117 1.6 4.8 0.00 0.00 0.00 95 1011.0
20260509133507 21 128 1.6 4.8 0.00 0.00 0.00 95 1011.0
20260509133026 21 115 1.6 4.8 0.00 0.00 0.00 95 1010.9
20260509132511 21 114 3.2 4.8 0.00 0.00 0.00 95 1010.9
20260509132012 21 138 0.0 3.2 0.00 0.00 0.00 95 1010.9
20260509131525 21 115 0.0 3.2 0.00 0.00 0.00 95 1011.0
20260509131002 21 132 1.6 3.2 0.00 0.00 0.00 94 1011.1
20260509130503 21 360 0.0 0.0 0.00 0.00 0.00 94 1011.2
20260509130029 21 360 0.0 0.0 0.00 0.00 0.00 94 1011.3
20260509125501 21 360 0.0 0.0 0.00 0.00 0.00 94 1011.3
20260509125002 21 194 0.0 0.0 0.00 0.00 0.00 94 1011.4
20260509124503 20 194 0.0 0.0 0.00 0.00 0.00 94 1011.4
20260509124003 20 194 0.0 0.0 0.00 0.00 0.00 94 1011.3
20260509123503 20 194 0.0 0.0 0.00 0.00 0.00 94 1011.2
20260509123004 20 194 0.0 0.0 0.00 0.00 0.00 94 1011.3
20260509122504 20 194 0.0 0.0 0.00 0.00 0.00 94 1011.2
20260509122003 20 194 0.0 0.0 0.00 0.00 0.00 94 1011.3
20260509121511 20 194 0.0 0.0 0.00 0.00 0.00 94 1011.2
20260509121004 20 228 0.0 0.0 0.00 0.00 0.00 94 1011.3
20260509120504 20 226 0.0 0.0 0.00 0.00 0.00 94 1011.4
20260509120011 20 226 0.0 0.0 0.00 0.00 0.00 94 1011.3
20260509115504 20 226 0.0 0.0 0.00 0.00 0.00 94 1011.3
20260509115006 20 309 0.0 0.0 0.00 0.00 0.00 94 1011.1
20260509114520 20 309 0.0 0.0 0.00 0.00 0.00 94 1011.0
20260509114002 20 309 0.0 0.0 0.00 0.00 0.00 94 1010.9
20260509113503 20 309 0.0 0.0 0.00 0.00 0.00 94 1010.6
20260509113004 20 309 0.0 0.0 0.00 0.00 0.00 94 1010.5
20260509112503 20 309 0.0 0.0 0.00 0.00 0.00 94 1010.3
20260509112003 20 309 0.0 0.0 0.00 0.00 0.00 94 1010.0
20260509111507 20 309 0.0 0.0 0.00 0.00 0.00 94 1009.9
20260509111004 20 241 0.0 0.0 0.00 0.00 0.00 94 1009.9
20260509110503 20 241 0.0 0.0 0.00 0.00 0.00 94 1010.0
20260509110012 20 241 0.0 0.0 0.00 0.00 0.00 94 1010.0
20260509105503 20 241 0.0 0.0 0.00 0.00 0.00 94 1010.0
20260509105003 20 241 0.0 3.2 0.00 0.00 0.00 94 1010.0
20260509104530 20 241 0.0 4.8 0.00 0.00 0.00 94 1009.9
20260509104003 20 241 1.6 4.8 0.00 0.00 0.00 94 1009.7
20260509103503 20 241 0.0 0.0 0.00 0.00 0.00 94 1009.7
20260509103022 20 181 0.0 0.0 0.00 0.00 0.00 94 1009.4
20260509102503 20 181 0.0 0.0 0.00 0.00 0.00 94 1009.2
20260509102003 20 181 0.0 4.8 0.00 0.00 0.00 94 1009.1
20260509101510 20 245 0.0 4.8 0.00 0.00 0.00 94 1009.1
20260509101002 20 129 0.0 0.0 0.00 0.00 0.00 94 1009.0
20260509100502 20 129 0.0 4.8 0.00 0.00 0.00 94 1008.9
20260509100007 20 129 0.0 4.8 0.00 0.00 0.00 94 1008.9
20260509095504 20 134 1.6 4.8 0.00 0.00 0.00 94 1008.9
20260509095004 20 201 0.0 3.2 0.00 0.00 0.00 93 1009.0
20260509094512 20 217 0.0 6.4 0.00 0.00 0.00 93 1009.0
20260509094004 20 142 1.6 6.4 0.00 0.00 0.00 93 1008.9
20260509093508 20 117 1.6 4.8 0.00 0.00 0.00 94 1008.9
20260509093024 20 126 3.2 4.8 0.00 0.00 0.00 94 1008.9
20260509092504 20 146 0.0 4.8 0.00 0.00 0.00 94 1009.0
20260509092006 20 142 0.0 1.6 0.00 0.00 0.00 94 1009.1
20260509091522 20 137 0.0 0.0 0.00 0.00 0.00 94 1009.2
20260509091003 20 215 0.0 0.0 0.00 0.00 0.00 94 1009.3
20260509090503 20 215 0.0 1.6 0.00 0.00 0.00 94 1009.5
20260509090002 20 215 0.0 6.4 0.00 0.00 0.00 94 1009.6
20260509085502 20 215 1.6 6.4 0.00 0.00 0.00 94 1009.7
20260509085002 20 181 1.6 6.4 0.00 0.00 0.00 94 1009.9
20260509084515 20 215 3.2 6.4 0.00 0.00 0.00 94 1010.0
20260509084005 20 225 1.6 6.4 0.00 0.00 0.00 94 1010.0
20260509083503 20 205 0.0 0.0 0.00 0.00 0.00 94 1010.1
20260509083030 20 192 0.0 0.0 0.00 0.00 0.00 94 1010.2
20260509082507 20 183 0.0 0.0 0.00 0.00 0.00 94 1010.3
20260509082014 20 183 0.0 0.0 0.00 0.00 0.00 94 1010.4
20260509081524 20 183 0.0 0.0 0.00 0.00 0.00 94 1010.4
20260509081006 20 96 0.0 0.0 0.00 0.00 0.00 94 1010.7
20260509080510 20 96 0.0 0.0 0.00 0.00 0.00 94 1010.9
20260509080025 20 96 0.0 0.0 0.00 0.00 0.00 94 1011.1
20260509075503 20 96 0.0 0.0 0.00 0.00 0.00 93 1011.3
20260509075003 20 96 0.0 0.0 0.00 0.00 0.00 93 1011.2
20260509074507 20 96 0.0 0.0 0.00 0.00 0.00 93 1011.2
20260509074002 20 96 0.0 0.0 0.00 0.00 0.00 93 1011.2
20260509073503 20 96 0.0 0.0 0.00 0.00 0.00 93 1011.1
20260509073023 19 96 0.0 0.0 0.00 0.00 0.00 93 1011.2
20260509072505 19 96 0.0 0.0 0.00 0.00 0.00 93 1011.2
20260509072007 19 96 0.0 0.0 0.00 0.00 0.00 93 1011.1
20260509071518 19 96 0.0 0.0 0.00 0.00 0.00 93 1011.1
20260509071004 19 96 0.0 3.2 0.00 0.00 0.00 93 1011.1
20260509070506 19 96 0.0 3.2 0.00 0.00 0.00 93 1010.9
20260509070025 19 96 0.0 3.2 0.00 0.00 0.00 93 1011.0
20260509065506 19 96 0.0 3.2 0.00 0.00 0.00 93 1010.9
20260509065006 19 96 0.0 4.8 0.00 0.00 0.00 93 1011.0
20260509064529 20 95 1.6 4.8 0.00 0.00 0.00 93 1011.1
20260509064004 20 102 0.0 3.2 0.00 0.00 0.00 93 1011.1
20260509063505 20 104 0.0 3.2 0.00 0.00 0.00 93 1011.3
20260509063019 20 104 0.0 3.2 0.00 0.00 0.00 93 1011.4
20260509062504 20 104 1.6 3.2 0.00 0.00 0.00 93 1011.3
20260509062007 20 104 0.0 3.2 0.00 0.00 0.00 93 1011.5
20260509061520 20 104 0.0 3.2 0.00 0.00 0.00 93 1011.5
20260509061003 20 104 0.0 3.2 0.00 0.00 0.00 93 1011.5
20260509060506 20 104 0.0 3.2 0.00 0.00 0.00 93 1011.6
20260509060020 20 104 0.0 3.2 0.00 0.00 0.00 93 1011.5
20260509055506 20 104 0.0 3.2 0.00 0.00 0.00 92 1011.6
20260509055007 20 104 0.0 3.2 0.00 0.00 0.00 92 1011.6
20260509054531 20 104 0.0 3.2 0.00 0.00 0.00 92 1011.5
20260509054009 19 104 0.0 1.6 0.00 0.00 0.00 92 1011.3
20260509053507 19 104 0.0 3.2 0.00 0.00 0.00 92 1011.3
20260509053039 20 104 1.6 3.2 0.00 0.00 0.00 92 1011.4
20260509052501 19 104 0.0 0.0 0.00 0.00 0.00 92 1011.5
20260509052003 19 104 0.0 0.0 0.00 0.00 0.00 92 1011.6
20260509051512 19 104 0.0 0.0 0.00 0.00 0.00 92 1011.1
20260509051003 19 104 0.0 3.2 0.00 0.00 0.00 92 1010.9
20260509050503 19 104 0.0 3.2 0.00 0.00 0.00 92 1010.8
20260509050022 19 104 0.0 4.8 0.00 0.00 0.00 92 1010.5
20260509045515 19 171 1.6 6.4 0.00 0.00 0.00 92 1010.4
20260509045006 19 203 3.2 9.7 0.00 0.00 0.00 92 1010.4
20260509044526 19 163 4.8 12.9 0.00 0.00 0.00 92 1010.5
20260509044011 19 178 6.4 12.9 0.00 0.00 0.00 92 1010.4
20260509043510 20 157 4.8 11.3 0.00 0.00 0.00 92 1010.5
20260509043030 19 147 3.2 8.0 0.00 0.00 0.00 92 1011.4
20260509042508 20 9 3.2 6.4 0.00 0.00 0.00 92 1012.0
20260509042013 20 49 1.6 11.3 0.00 0.00 0.00 92 1012.0
20260509041529 20 51 4.8 16.1 0.00 0.00 0.00 91 1011.9
20260509041003 20 350 9.7 16.1 0.00 0.00 0.00 91 1012.0
20260509040502 20 11 6.4 9.7 0.00 0.00 0.00 91 1011.7
20260509040027 20 351 4.8 6.4 0.00 0.00 0.00 91 1011.6
20260509035501 20 9 3.2 4.8 0.00 0.00 0.00 90 1011.4
20260509035003 20 5 0.0 0.0 0.00 0.00 0.00 90 1011.2
20260509034503 20 5 0.0 0.0 0.00 0.00 0.00 90 1010.9
20260509034003 20 5 0.0 0.0 0.00 0.00 0.00 90 1010.8
20260509033502 20 5 0.0 0.0 0.00 0.00 0.00 90 1011.1
20260509033004 20 5 0.0 0.0 0.00 0.00 0.00 89 1011.0
20260509032507 20 5 0.0 0.0 0.00 0.00 0.00 89 1010.8
20260509032004 20 5 0.0 0.0 0.00 0.00 0.00 89 1010.8
20260509031511 20 5 0.0 0.0 0.00 0.00 0.00 89 1010.8
20260509031003 20 5 0.0 0.0 0.00 0.00 0.00 88 1010.6
20260509030503 20 5 0.0 0.0 0.00 0.00 0.00 88 1010.7
20260509030028 20 5 0.0 0.0 0.00 0.00 0.00 89 1010.7
20260509025503 20 5 0.0 0.0 0.00 0.00 0.00 89 1010.7
20260509025003 20 5 0.0 0.0 0.00 0.00 0.00 88 1010.7
20260509024518 20 310 0.0 0.0 0.00 0.00 0.00 88 1010.5
20260509024002 20 265 0.0 0.0 0.00 0.00 0.00 88 1010.3
20260509023502 20 342 0.0 0.0 0.00 0.00 0.00 87 1010.1
20260509023005 20 49 0.0 0.0 0.00 0.00 0.00 87 1010.2
20260509022502 20 49 0.0 0.0 0.00 0.00 0.00 87 1010.1
20260509022003 20 49 0.0 0.0 0.00 0.00 0.00 86 1010.0
20260509021508 20 49 0.0 0.0 0.00 0.00 0.00 86 1009.8
20260509021004 20 49 0.0 0.0 0.00 0.00 0.00 86 1009.9
20260509020502 20 49 0.0 0.0 0.00 0.00 0.00 85 1009.7
20260509020011 20 49 0.0 0.0 0.00 0.00 0.00 85 1009.8
20260509015503 20 49 0.0 0.0 0.00 0.00 0.00 85 1009.8
20260509015006 21 49 0.0 0.0 0.00 0.00 0.00 84 1009.8
20260509014517 21 49 0.0 0.0 0.00 0.00 0.00 82 1009.8
20260509014010 21 49 0.0 0.0 0.00 0.00 0.00 81 1009.7
20260509013507 21 49 0.0 0.0 0.00 0.00 0.00 80 1009.6
20260509013024 21 49 0.0 0.0 0.00 0.00 0.00 80 1009.5
20260509012505 22 49 0.0 0.0 0.00 0.00 0.00 79 1009.4
20260509012005 22 49 0.0 0.0 0.00 0.00 0.00 78 1009.3
20260509011504 22 203 0.0 0.0 0.00 0.00 0.00 79 1009.3
20260509011007 22 203 0.0 0.0 0.00 0.00 0.00 77 1009.2
20260509010503 22 203 0.0 0.0 0.00 0.00 0.00 77 1009.1
20260509010032 22 203 0.0 0.0 0.00 0.00 0.00 77 1009.0
20260509005504 22 203 0.0 0.0 0.00 0.00 0.00 77 1008.9
20260509005011 22 203 0.0 0.0 0.00 0.00 0.00 77 1008.9
20260509004523 22 203 0.0 0.0 0.00 0.00 0.00 77 1008.9
20260509004007 22 203 0.0 1.6 0.00 0.00 0.00 77 1008.9
20260509003504 22 187 0.0 3.2 0.00 0.00 0.00 77 1009.0
20260509003018 22 187 0.0 3.2 0.00 0.00 0.00 76 1008.9
20260509002508 22 187 1.6 4.8 0.00 0.00 0.00 75 1008.9
20260509002008 22 201 3.2 6.4 0.00 0.00 0.00 74 1008.9
20260509001523 23 209 3.2 6.4 0.00 0.00 0.00 74 1009.0
20260509001004 23 209 3.2 6.4 0.00 0.00 0.00 75 1009.0
20260509000503 23 236 3.2 8.0 0.00 0.00 0.00 75 1009.1
20260509000026 23 229 4.8 8.0 0.00 0.00 0.00 75 1009.1
20260508235505 23 232 3.2 8.0 0.00 0.00 0.00 76 1009.2
20260508235006 23 240 3.2 8.0 0.00 0.00 0.00 74 1009.3
20260508234514 23 222 4.8 8.0 0.00 0.00 0.00 74 1009.3
20260508234004 23 208 4.8 9.7 0.00 0.00 0.00 73 1009.4
20260508233504 23 220 3.2 11.3 0.00 0.00 0.00 72 1009.5
20260508233016 23 211 6.4 11.3 0.00 0.00 0.00 72 1009.4
20260508232503 24 207 4.8 14.5 0.00 0.00 0.00 70 1009.4
20260508232006 24 211 6.4 14.5 0.00 0.00 0.00 68 1009.6
20260508231521 24 198 6.4 11.3 0.00 0.00 0.00 66 1009.6
20260508231008 25 191 3.2 11.3 0.00 0.00 0.00 67 1009.6
20260508230508 25 186 6.4 11.3 0.00 0.00 0.00 67 1009.6
20260508230030 25 197 3.2 12.9 0.00 0.00 0.00 67 1009.7
20260508225508 25 190 8.0 16.1 0.00 0.00 0.00 65 1009.7
20260508225004 25 154 6.4 16.1 0.00 0.00 0.00 65 1009.5
20260508224507 25 226 8.0 14.5 0.00 0.00 0.00 64 1009.3
20260508224003 25 217 3.2 11.3 0.00 0.00 0.00 69 1009.2
20260508223504 25 194 4.8 11.3 0.00 0.00 0.00 68 1009.2
20260508223034 25 138 1.6 11.3 0.00 0.00 0.00 69 1008.9
20260508222502 24 209 3.2 8.0 0.00 0.00 0.00 71 1008.8
20260508222008 23 173 1.6 12.9 0.00 0.00 0.00 72 1008.6
20260508221520 23 138 3.2 12.9 0.00 0.00 0.00 72 1008.2
20260508221006 23 103 4.8 12.9 0.00 0.00 0.00 74 1007.6
20260508220507 22 352 3.2 12.9 0.00 0.00 0.00 73 1008.7
20260508220023 23 9 6.4 6.4 0.00 0.00 0.00 71 1009.0
20260508215511 23 150 1.6 4.8 0.00 0.00 0.00 70 1009.1
20260508215011 23 150 0.0 8.0 0.00 0.00 0.00 70 1009.9
20260508214528 23 182 3.2 8.0 0.00 0.00 0.00 69 1010.2
20260508214003 23 223 3.2 6.4 0.00 0.00 0.00 69 1010.7
20260508213503 23 205 1.6 3.2 0.00 0.00 0.00 69 1010.4
20260508213020 23 207 0.0 4.8 0.00 0.00 0.00 68 1010.3
20260508212505 23 192 1.6 6.4 0.00 0.00 0.00 66 1010.1
20260508212014 23 236 1.6 6.4 0.00 0.00 0.00 67 1010.5
20260508211516 23 234 3.2 9.7 0.00 0.00 0.00 66 1010.7
20260508211008 24 246 4.8 11.3 0.00 0.00 0.00 64 1010.7
20260508210506 24 234 6.4 11.3 0.00 0.00 0.00 64 1010.8
20260508210028 24 230 6.4 11.3 0.00 0.00 0.00 63 1010.9
20260508205508 25 241 6.4 11.3 0.00 0.00 0.00 63 1010.8
20260508205006 25 234 3.2 11.3 0.00 0.00 0.00 62 1010.7
20260508204528 25 221 4.8 11.3 0.00 0.00 0.00 63 1010.6
20260508204010 25 205 6.4 9.7 0.00 0.00 0.00 64 1010.6
20260508203508 24 205 0.0 6.4 0.00 0.00 0.00 63 1010.8
20260508203030 25 205 3.2 6.4 0.00 0.00 0.00 62 1010.8
20260508202503 25 209 4.8 6.4 0.00 0.00 0.00 61 1010.8
20260508202003 25 209 3.2 9.7 0.00 0.00 0.00 60 1010.9
20260508201518 25 203 4.8 9.7 0.00 0.00 0.00 61 1010.9
20260508201006 25 217 6.4 9.7 0.00 0.00 0.00 64 1010.8
20260508200506 25 158 3.2 8.0 0.00 0.00 0.00 65 1010.9
20260508200024 25 169 1.6 8.0 0.00 0.00 0.00 67 1011.0
20260508195511 25 167 3.2 8.0 0.00 0.00 0.00 68 1011.2
20260508195006 25 156 3.2 9.7 0.00 0.00 0.00 63 1011.3
20260508194533 24 111 1.6 9.7 0.00 0.00 0.00 63 1011.5
20260508194006 24 165 4.8 11.3 0.00 0.00 0.00 64 1011.6
20260508193509 25 166 0.0 11.3 0.00 0.00 0.00 65 1011.6
20260508193026 24 207 3.2 11.3 0.00 0.00 0.00 65 1011.6
20260508192510 24 141 3.2 8.0 0.00 0.00 0.00 64 1011.6
20260508192013 24 150 1.6 9.7 0.00 0.00 0.00 66 1011.5
20260508191537 24 159 3.2 9.7 0.00 0.00 0.00 65 1011.7
20260508191003 23 130 3.2 8.0 0.00 0.00 0.00 66 1011.9
20260508190504 23 133 3.2 8.0 0.00 0.00 0.00 70 1012.0
20260508190019 23 142 1.6 6.4 0.00 0.00 0.00 67 1012.0
20260508185506 24 180 1.6 9.7 0.00 0.00 0.00 68 1012.0
20260508185004 23 155 3.2 9.7 0.00 0.00 0.00 65 1012.0
20260508184523 23 191 1.6 8.0 0.00 0.00 0.00 66 1012.0
20260508184003 23 177 1.6 6.4 0.00 0.00 0.00 66 1012.1
20260508183505 23 200 3.2 8.0 0.00 0.00 0.00 67 1012.2
20260508183004 23 168 3.2 8.0 0.00 0.00 0.00 65 1012.2
20260508182504 23 210 1.6 6.4 0.00 0.00 0.00 69 1012.3
20260508182003 23 233 3.2 11.3 0.00 0.00 0.00 69 1012.4
20260508181531 23 150 6.4 9.7 0.00 0.00 0.00 66 1012.5
20260508181004 23 227 0.0 8.0 0.00 0.00 0.00 68 1012.7
20260508180503 23 212 3.2 12.9 0.00 0.00 0.00 68 1012.8
20260508180020 22 219 4.8 12.9 0.00 0.00 0.00 68 1012.8
20260508175504 23 224 4.8 9.7 0.00 0.00 0.00 69 1012.9
20260508175007 23 213 3.2 6.4 0.00 0.00 0.00 74 1013.1
20260508174519 22 104 1.6 8.0 0.00 0.00 0.00 72 1013.3
20260508174002 22 204 4.8 9.7 0.00 0.00 0.00 69 1013.4
20260508173502 22 205 4.8 9.7 0.00 0.00 0.00 67 1013.5
20260508173003 22 248 3.2 8.0 0.00 0.00 0.00 68 1013.6
20260508172506 22 218 6.4 11.3 0.00 0.00 0.00 68 1013.9
20260508172003 22 234 3.2 11.3 0.00 0.00 0.00 71 1013.9
20260508171510 22 215 6.4 14.5 0.00 0.00 0.00 69 1014.0
20260508171003 22 194 6.4 14.5 0.00 0.00 0.00 69 1014.0
20260508170509 22 197 4.8 14.5 0.00 0.00 0.00 70 1014.1
20260508170011 22 209 6.4 12.9 0.00 0.00 0.00 69 1014.1
20260508165503 22 186 6.4 12.9 0.00 0.00 0.00 69 1014.2
20260508165011 21 220 4.8 11.3 0.00 0.00 0.00 69 1014.3
20260508164518 22 199 4.8 11.3 0.00 0.00 0.00 68 1014.5
20260508164007 21 232 4.8 14.5 0.00 0.00 0.00 68 1014.7
20260508163505 22 209 6.4 17.7 0.00 0.00 0.00 67 1014.7
20260508163004 22 230 9.7 17.7 0.00 0.00 0.00 68 1014.5
20260508162503 22 217 8.0 12.9 0.00 0.00 0.00 69 1014.4
20260508162002 22 215 8.0 12.9 0.00 0.00 0.00 70 1014.4
20260508161505 22 202 6.4 11.3 0.00 0.00 0.00 71 1014.5
20260508161004 21 216 3.2 11.3 0.00 0.00 0.00 69 1014.5
20260508160502 21 190 4.8 11.3 0.00 0.00 0.00 71 1014.7
20260508160019 21 228 6.4 14.5 0.00 0.00 0.00 70 1014.8
20260508155504 21 154 4.8 12.9 0.00 0.00 0.00 70 1014.9
20260508155003 22 197 4.8 8.0 0.00 0.00 0.00 71 1014.8
20260508154518 21 186 3.2 4.8 0.00 0.00 0.00 75 1014.8
20260508154006 21 183 3.2 8.0 0.00 0.00 0.00 74 1014.8
20260508153506 21 128 3.2 9.7 0.00 0.00 0.00 72 1014.8
20260508153019 21 192 4.8 9.7 0.00 0.00 0.00 72 1014.9
20260508152513 21 177 4.8 8.0 0.00 0.00 0.00 71 1015.0
20260508152014 21 225 3.2 6.4 0.00 0.00 0.00 72 1015.2
20260508151504 21 148 1.6 4.8 0.00 0.00 0.00 74 1015.1
20260508151003 21 122 0.0 4.8 0.00 0.00 0.00 73 1015.0